Location: Newark
(35.5300°N, 14.3000°E)
Time: 07:09:31
(UTC+00:00)

Vanguard 3 - All Passes

Search period start: 17 November 2019 00:00
Search period end: 27 November 2019 00:00
Orbit: 508 x 3263 km, 33.3° (Epoch: 16 November)

Date Brightness Start Highest point End Pass type
(mag) Time Alt. Az. Time Alt. Az. Time Alt. Az.
17 Nov - 10:27:31 10° SSW 10:42:32 32° SE 10:58:05 10° E daylight
17 Nov - 12:38:40 10° SW 12:58:00 62° SSE 13:14:26 10° E daylight
17 Nov - 14:54:39 10° WSW 15:14:35 82° S 15:27:54 10° E daylight
17 Nov - 17:12:57 10° W 17:30:03 74° SSW 17:39:49 10° ESE visible
17 Nov - 19:31:33 10° W 19:42:36 35° SW 19:49:22 10° SSE visible
18 Nov - 09:16:06 10° S 09:26:53 19° SE 09:38:42 10° E daylight
18 Nov - 11:23:38 10° SW 11:41:13 49° SSE 11:58:33 10° E daylight
18 Nov - 13:37:31 10° WSW 13:57:39 76° SSE 14:13:14 10° E daylight
18 Nov - 15:54:57 10° W 16:14:09 82° S 16:26:04 10° E visible
18 Nov - 18:13:28 10° W 18:28:25 55° SSW 18:37:01 10° SE visible
18 Nov - 20:33:38 10° W 20:39:22 16° SW 20:43:46 10° SSW visible
19 Nov - 10:09:58 10° SSW 10:24:58 35° SE 10:41:29 10° E daylight
19 Nov - 12:21:22 10° SW 12:40:31 66° SSE 12:57:55 10° E daylight
19 Nov - 14:37:16 10° W 14:57:29 83° S 15:11:45 10° E daylight
19 Nov - 16:55:25 10° W 17:13:17 71° SSW 17:23:51 10° ESE visible
19 Nov - 19:14:18 10° W 19:25:55 32° SW 19:33:13 10° SSE visible
20 Nov - 08:58:09 10° S 09:09:26 22° SE 09:22:27 10° E daylight
20 Nov - 11:06:23 10° SW 11:23:39 53° SSE 11:41:49 10° E daylight
20 Nov - 13:20:16 10° WSW 13:40:19 79° SSE 13:56:50 10° E daylight
20 Nov - 15:37:30 10° W 15:57:11 81° S 16:10:00 10° ESE daylight
20 Nov - 17:55:58 10° W 18:11:39 51° SSW 18:20:59 10° SE visible
20 Nov - 20:17:08 10° W 20:22:39 15° SW 20:27:01 10° SSW visible
21 Nov - 07:53:28 10° SE 07:54:35 10° SE 07:55:44 10° ESE daylight
21 Nov - 09:52:40 10° SSW 10:07:24 39° SE 10:24:39 10° E daylight
21 Nov - 12:04:15 10° WSW 12:23:02 70° SSE 12:41:16 10° E daylight
21 Nov - 14:19:58 10° W 14:40:19 84° S 14:55:29 10° E daylight
21 Nov - 16:37:53 10° W 16:56:23 68° SSW 17:07:47 10° ESE visible
21 Nov - 18:57:03 10° W 19:09:06 30° SW 19:16:57 10° SSE visible
22 Nov - 08:40:36 10° S 08:51:59 25° SE 09:05:50 10° E daylight
22 Nov - 10:49:21 10° SW 11:06:05 57° SSE 11:24:56 10° E daylight
22 Nov - 13:03:11 10° WSW 13:22:56 81° S 13:40:20 10° E daylight
22 Nov - 15:20:06 10° W 15:40:07 79° SSW 15:53:50 10° ESE daylight
22 Nov - 17:38:28 10° W 17:54:44 48° SW 18:04:48 10° SE visible
22 Nov - 20:00:48 10° WSW 20:05:49 13° SW 20:09:59 10° SSW visible
23 Nov - 07:32:25 10° SE 07:37:19 12° SE 07:42:44 10° ESE daylight
23 Nov - 09:35:38 10° SSW 09:49:51 43° SE 10:07:39 10° E daylight
23 Nov - 11:47:19 10° WSW 12:05:32 73° SSE 12:24:30 10° E daylight
23 Nov - 14:02:47 10° W 14:23:04 84° S 14:39:09 10° E daylight
23 Nov - 16:20:23 10° W 16:39:20 65° SSW 16:51:37 10° SE visible
23 Nov - 18:39:48 10° W 18:52:10 28° SW 19:00:32 10° S visible
24 Nov - 08:23:22 10° S 08:34:33 28° SE 08:48:58 10° E daylight
24 Nov - 10:32:30 10° SW 10:48:33 61° SSE 11:07:55 10° E daylight
24 Nov - 12:46:13 10° WSW 13:05:33 82° S 13:23:44 10° E daylight
24 Nov - 15:02:46 10° W 15:22:56 77° SSW 15:37:33 10° ESE daylight
24 Nov - 17:20:59 10° W 17:37:41 45° SW 17:48:31 10° SSE visible
24 Nov - 19:44:49 10° WSW 19:48:54 12° SW 19:52:27 10° SW visible
25 Nov - 07:13:59 10° SSE 07:20:04 14° SE 07:27:13 10° E daylight
25 Nov - 09:18:48 10° SSW 09:32:23 46° SE 09:50:29 10° E daylight
25 Nov - 11:30:32 10° WSW 11:48:03 76° SSE 12:07:37 10° E daylight
25 Nov - 13:45:43 10° W 14:05:44 83° S 14:22:42 10° E daylight
25 Nov - 16:02:57 10° W 16:22:10 62° SSW 16:35:18 10° SE visible
25 Nov - 18:22:37 10° W 18:35:06 26° SW 18:43:55 10° S visible
26 Nov - 08:06:24 10° S 08:17:11 30° SE 08:31:54 10° E daylight
26 Nov - 10:15:50 10° SW 10:31:05 64° SSE 10:50:46 10° E daylight
26 Nov - 12:29:23 10° W 12:48:08 83° S 13:07:02 10° E daylight
26 Nov - 14:45:32 10° W 15:05:39 75° SSW 15:21:10 10° ESE daylight
26 Nov - 17:03:34 10° W 17:20:29 42° SW 17:32:03 10° SSE visible
26 Nov - 19:29:54 10° WSW 19:31:53 10° WSW 19:33:44 10° SW visible
